STARLINK-1461 (45730 NORAD) Tracking and Keplerian Element Data

This shows tracking and keplerian element data for the satellite.

Feedback or suggestion? Click here.




ElementValue
Catalog45730
NameSTARLINK-1461
Epoch Orbit958
Epoch Day218.91667824
Epoch Year2020
RAAN42.4293
Inclination53.0116
Eccentricity0.0001268
Argument of Perigee69.9953
Mean Anonmoly275.8586
Mean Motion15.05567679
Decay Rate0.00033563
L11 45730U 20038A 20218.91667824 .00033563 00000-0 23125-2 0 9993
L22 45730 53.0116 42.4293 0001268 69.9953 275.8586 15.05567679 9583

Live tracking and technical data element details for STARLINK-1461 (NORAD 45730). STARLINK-1461 can be tracked NOW for your location showing map with azimuth and elevation plus other details from your city location.

Track the satellite on the map from your city or location and see movement details for azimuth, elevation, latitude, longitude, range, height, and movement on the map or in text.







IsCatalogInMostPopularTable: catalog: 45730, numindb: 10
Update: records affected: 1



GetName: 45730 STARLINK-1461

Hit Count: updated at: Fri, 07 Aug 2020 23:39:55 GMT